Regional Weather Roundup
Issued by NWS State College, PA

Home | Current Version | Previous Version | Graphics & Text | Print | Product List | Glossary On
Versions: 1 2 3 4 5 6 7 8 9 10 11 12 13 14 15 16 17 18 19 20 21 22 23 24 25 26 27 28 29 30 31 32 33 34 35 36 37 38 39 40 41 42 43 44 45 46 47 48 49 50
000
ASUS41 KCTP 302110
RWRCTP

REGIONAL WEATHER ROUNDUP
NATIONAL WEATHER SERVICE STATE COLLEGE PA
500 PM EDT TUE SEP 30 2014

Note: "fair" indicates few or no clouds below 12,000 feet with no
significant weather and/or obstructions to visibility.

* = STATION THAT DOES NOT REPORT PRECIPITATION /E.G. RAIN...SNOW...ETC/
    THUNDER OR FOG.

PAZ002>004-007>009-013>016-020>023-029>032-302200-
WESTERN PENNSYLVANIA

CITY           SKY/WX    TMP DP  RH WIND       PRES   REMARKS
ERIE           PTSUNNY   65  59  81 NW8       29.91R
MEADVILLE      MOSUNNY   65  52  62 VRB5      29.91S
FRANKLIN*      MOSUNNY   66  52  59 CALM      29.92S
NEW CASTLE       N/A     69  59  70 CALM      29.90F
BEAVER COUNTY  PTSUNNY   66  57  72 S3        29.89F
BUTLER*        PTSUNNY   66  55  68 CALM      29.92S
PITTSBURGH INT MOSUNNY   67  58  72 SW3       29.89F
PITTSBURGH     PTSUNNY   69  54  58 SW6       29.90S
INDIANA*       SUNNY     68  55  64 NW7       29.93S
LATROBE        PTSUNNY   66  59  77 VRB6      29.91S
WASHINGTON CO* MOSUNNY   66  57  72 S3        29.93S
$$

PAZ004>006-010>012-017>019-024>028-033>037-041-042-045-046-049>053-302200-
CENTRAL PENNSYLVANIA

CITY           SKY/WX    TMP DP  RH WIND       PRES   REMARKS
BRADFORD       LGT RAIN  66  54  65 NW8       29.91S
DUBOIS         CLOUDY    64  57  78 W5        29.89F
CLEARFIELD     CLOUDY    69  55  60 N8        29.88S
JOHNSTOWN      CLOUDY    66  52  60 W9        29.91S
ALTOONA        TSTM      65  61  87 W10       29.88R FOG
STATE COLLEGE  MOSUNNY   63  57  82 NW3       29.87F
WILLIAMSPORT   PTSUNNY   72  60  66 VRB3      29.86S
SELINSGROVE    PTSUNNY   73  61  65 S3        29.87F
FT INDIANTOWN  PTSUNNY   74  59  59 SE6       29.87F
CAPITAL CITY   SUNNY     73  61  65 E3        29.87S
HARRISBURG     PTSUNNY   73  61  65 VRB3      29.86F
YORK           MOSUNNY   74  61  63 E6        29.87F
$$

PAZ038>040-043-044-047-048-054-055-060>062-067>071-302200-
EASTERN PENNSYLVANIA

CITY           SKY/WX    TMP DP  RH WIND       PRES   REMARKS
SCRANTON       CLOUDY    71  57  61 CALM      29.88F
MOUNT POCONO   CLOUDY    70  51  51 SE7       29.93F
ALLENTOWN      MOSUNNY   76  50  40 SE8       29.89S
QUAKERTOWN*    PTCLDY    73  54  49 E5        29.90S
READING        MOSUNNY   76  55  48 SE5       29.86F
LANCASTER      PTSUNNY   74  57  55 SE8       29.87F
COATESVILLE    PTCLDY    72  59  64 CALM      29.90S
POTTSTOWN      PTSUNNY   75  54  47 VRB3      29.89S
BLUE BELL      PTSUNNY   75  54  46 E3        29.88S
DOYLESTOWN     PTSUNNY   72  54  53 VRB3      29.89F
WILLOW GROVE   NOT AVBL
NORTH PHILA    PTSUNNY   74  57  55 E15       29.91S
PHILADELPHIA   PTSUNNY   78  54  43 NE5       29.88F
$$



USA.gov is the U.S. government's official web portal to all federal, state and local government web resources and services.